www.pogodaiklimat.ru

Погода и климат >> Архив погоды >> Япония >> Йонагуни


ПОГОДА на Йонагуни

  • Прогноз погоды на Йонагуни
  • Монитор погоды на Йонагуни

АРХИВ ПОГОДЫ на Йонагуни

Время (UTC), дата Ветер
(напр.,м/с)
 
Видим.   Явления Облачность Т
(С)
Тd
(С)
f
(%)
Тe
(С)
Тes
(С)
Комфортность P
(гПа)
Po
(гПа)
Тmin
(С)
Tmax
(С)
R
(мм)
R24
(мм)
S
(см)
06 19.08 С 2 7000 м слаб. дождь н/о +27.2 +26.7 97 +42 +42 опасность
перегрева
1004.6 1000.5 3
09 19.08 С 4 10 км в посл. час дождь н/о +27.5 +26.5 94 +42 +42 опасность
перегрева
1004.3 1000.2
10 19.08 С 6 19 км слаб. дождь н/о +26.4 +24.8 91 +38 +38 очень
душно
1004.5 1000.4
11 19.08 СВ 3 13 км слаб. дождь н/о +27.4 +25.8 91 +41 +41 опасность
перегрева
1005.4 1001.3
12 19.08 СЗ 5 6000 м слаб. дождь н/о +25.8 +25.3 97 +37 +37 очень
душно
1006.0 1001.9 +29.3 7
13 19.08 ЮВ 3 6000 м дождь н/о +25.0 +24.8 99 +35 +35 очень
душно
1006.6 1002.5
14 19.08 З 1 11 км слаб. дождь н/о +25.1 +25.1 100 +36 +36 очень
душно
1006.6 1002.5
15 19.08 СЗ 1 10 км слаб. дождь н/о +25.1 +25.1 100 +36 +36 очень
душно
1006.2 1002.1
16 19.08 СЗ 3 10 км слаб. дождь н/о +25.2 +24.9 98 +36 +36 очень
душно
1005.4 1001.3
17 19.08 СЗ 4 15 км слаб. дождь н/о +25.5 +25.0 97 +36 +36 очень
душно
1004.4 1000.3
18 19.08 СЗ 3 13 км слаб. дождь н/о +25.8 +25.3 97 +37 +37 очень
душно
1004.3 1000.2 18
19 19.08 СЗ 1 11 км в посл. час дождь н/о +25.6 +25.4 99 +37 +37 очень
душно
1004.9 1000.8
20 19.08 ЮЗ 1 7000 м дымка н/о +25.3 +25.3 100 +36 +36 очень
душно
1004.6 1000.5
21 19.08 ЮВ 1 9000 м дымка {дождь} н/о +25.2 +25.2 100 +36 +36 очень
душно
1004.5 1000.4
22 19.08 ЮЗ 2 9000 м дымка н/о +25.3 +25.3 100 +36 +36 очень
душно
1005.1 1001.0
23 19.08 ЮЗ 1 20 км н/о +27.2 +26.5 96 +42 +42 опасность
перегрева
1005.0 1000.9
00 20.08 С 3 20 км {дождь} н/о +27.6 +26.2 92 +42 +42 опасность
перегрева
1005.4 1001.3 +24.8 18
01 20.08 С 3 20 км н/о +28.9 +26.7 88 +45 +45 опасность
перегрева
1005.7 1001.6
02 20.08 С 3 20 км н/о +28.1 +26.3 90 +43 +43 опасность
перегрева
1005.6 1001.5
03 20.08 Ю 1 20 км слаб. дождь н/о +27.7 +26.1 91 +42 +42 опасность
перегрева
1005.3 1001.2
04 20.08 В 2 20 км в посл. час дождь н/о +29.0 +27.6 92 +47 +47 опасность
перегрева
1005.0 1000.9
05 20.08 Ю 3 20 км н/о +28.7 +25.9 85 +43 +43 опасность
перегрева
1004.5 1000.4
06 20.08 ЮВ 3 20 км {дождь} н/о +29.4 +25.8 81 +44 +44 опасность
перегрева
1004.2 1000.1 3
07 20.08 ЮВ 3 20 км н/о +29.5 +25.7 80 +44 +44 опасность
перегрева
1004.0 999.9
08 20.08 Ю 3 20 км н/о +29.7 +25.9 80 +44 +44 опасность
перегрева
1004.1 1000.0
10 20.08 Ю 3 20 км н/о +28.1 +25.9 88 +42 +42 опасность
перегрева
1004.6 1000.5
11 20.08 Ю 2 20 км н/о +27.5 +25.7 90 +41 +41 опасность
перегрева
1005.3 1001.2
12 20.08 Ю 3 20 км н/о +27.6 +26.0 91 +41 +41 опасность
перегрева
1005.7 1001.6 +30.3 3
13 20.08 Ю 3 20 км н/о +27.5 +25.9 91 +41 +41 опасность
перегрева
1005.9 1001.8
14 20.08 Ю 3 20 км н/о +27.5 +26.3 93 +42 +42 опасность
перегрева
1005.7 1001.6
15 20.08 Ю 3 20 км н/о +27.5 +25.9 91 +41 +41 опасность
перегрева
1005.5 1001.4
16 20.08 Ю 3 20 км н/о +27.4 +25.6 90 +40 +40 очень
душно
1005.2 1001.1
17 20.08 Ю 4 20 км н/о +27.3 +25.0 87 +39 +39 очень
душно
1004.8 1000.7
18 20.08 Ю 4 20 км н/о +27.3 +25.7 91 +40 +40 очень
душно
1004.5 1000.4
20 20.08 Ю 3 19 км в посл. час дождь н/о +27.0 +25.8 93 +40 +40 очень
душно
1004.7 1000.6
22 20.08 Ю 3 19 км н/о +27.0 +25.4 91 +39 +39 очень
душно
1005.4 1001.3
23 20.08 Ю 5 20 км н/о +27.5 +25.5 89 +40 +40 очень
душно
1005.8 1001.7
00 21.08 Ю 5 20 км {дождь} н/о +28.8 +25.4 82 +42 +42 опасность
перегрева
1006.2 1002.1 +26.7 0.0
01 21.08 Ю 4 20 км н/о +29.7 +26.5 83 +46 +46 опасность
перегрева
1006.3 1002.2
02 21.08 ЮВ 4 20 км н/о +29.6 +26.0 81 +44 +44 опасность
перегрева
1006.0 1001.9
03 21.08 ЮВ 4 20 км слаб. дождь н/о +28.8 +26.6 88 +45 +45 опасность
перегрева
1005.7 1001.6
05 21.08 Ю 6 20 км н/о +30.3 +26.7 81 +47 +47 опасность
перегрева
1005.2 1001.1
06 21.08 Ю 6 20 км {дождь} н/о +30.3 +26.7 81 +47 +47 опасность
перегрева
1005.1 1001.0 4
07 21.08 Ю 5 20 км н/о +30.4 +27.2 83 +48 +48 опасность
перегрева
1004.8 1000.7
09 21.08 Ю 5 20 км н/о +29.1 +26.1 84 +44 +44 опасность
перегрева
1005.6 1001.5
10 21.08 Ю 5 20 км н/о +28.5 +25.3 83 +42 +42 опасность
перегрева
1005.7 1001.6
11 21.08 Ю 5 20 км н/о +28.2 +25.8 87 +42 +42 опасность
перегрева
1006.2 1002.1
12 21.08 Ю 5 20 км н/о +28.2 +26.0 88 +42 +42 опасность
перегрева
1006.7 1002.6 +30.8 4
13 21.08 Ю 5 20 км н/о +28.2 +26.2 89 +43 +43 опасность
перегрева
1007.3 1003.2
15 21.08 Ю 4 20 км н/о +28.3 +26.7 91 +44 +44 опасность
перегрева
1007.4 1003.3
16 21.08 Ю 4 20 км н/о +28.0 +26.2 90 +42 +42 опасность
перегрева
1007.0 1002.9
17 21.08 Ю 5 20 км н/о +28.0 +26.6 92 +43 +43 опасность
перегрева
1006.6 1002.5
18 21.08 Ю 4 20 км н/о +27.8 +26.0 90 +42 +42 опасность
перегрева
1006.4 1002.3
19 21.08 ЮВ 4 20 км н/о +27.8 +26.6 93 +43 +43 опасность
перегрева
1006.4 1002.3
20 21.08 ЮВ 4 20 км н/о +27.5 +26.3 93 +42 +42 опасность
перегрева
1006.6 1002.5
22 21.08 ЮВ 4 20 км н/о +27.6 +26.0 91 +41 +41 опасность
перегрева
1007.1 1003.0
23 21.08 ЮВ 5 20 км н/о +28.7 +26.1 86 +43 +43 опасность
перегрева
1007.6 1003.5
00 22.08 ЮВ 4 20 км {дождь} н/о +29.3 +26.3 84 +45 +45 опасность
перегрева
1007.9 1003.8 +27.4 0.0
01 22.08 ЮВ 3 20 км н/о +30.6 +27.8 85 +50 +50 опасность
перегрева
1007.9 1003.8
02 22.08 ЮВ 5 20 км н/о +30.2 +27.0 83 +47 +47 опасность
перегрева
1007.9 1003.8
04 22.08 ЮВ 7 20 км н/о +30.6 +26.3 78 +47 +47 опасность
перегрева
1007.4 1003.3
05 22.08 ЮВ 6 20 км н/о +30.8 +26.7 79 +48 +48 опасность
перегрева
1007.0 1002.9
06 22.08 ЮВ 5 20 км н/о +31.1 +27.2 80 +49 +49 опасность
перегрева
1006.7 1002.6
07 22.08 ЮВ 5 20 км н/о +30.6 +26.5 79 +47 +47 опасность
перегрева
1006.3 1002.2
08 22.08 ЮВ 4 20 км н/о +30.1 +26.9 83 +47 +47 опасность
перегрева
1006.4 1002.3
09 22.08 ЮВ 4 20 км н/о +29.6 +26.4 83 +45 +45 опасность
перегрева
1006.5 1002.4
11 22.08 В 2 20 км н/о +27.7 +26.1 91 +42 +42 опасность
перегрева
1007.5 1003.4
12 22.08 СВ 1 20 км н/о +28.1 +26.7 92 +44 +44 опасность
перегрева
1008.1 1004.0 +31.8
13 22.08 В 4 20 км н/о +28.1 +26.7 92 +44 +44 опасность
перегрева
1008.5 1004.4
14 22.08 В 3 20 км н/о +28.0 +26.8 93 +44 +44 опасность
перегрева
1008.6 1004.5
15 22.08 В 3 20 км н/о +28.1 +26.9 93 +44 +44 опасность
перегрева
1008.5 1004.4
16 22.08 В 3 20 км н/о +27.7 +26.7 94 +43 +43 опасность
перегрева
1008.3 1004.2
17 22.08 В 3 20 км н/о +27.5 +26.1 92 +41 +41 опасность
перегрева
1007.8 1003.7
18 22.08 В 2 20 км н/о +27.4 +26.4 94 +42 +42 опасность
перегрева
1007.2 1003.1
19 22.08 В 2 20 км н/о +27.2 +26.5 96 +42 +42 опасность
перегрева
1006.9 1002.8
20 22.08 В 5 20 км н/о +27.9 +26.7 93 +43 +43 опасность
перегрева
1006.9 1002.8
21 22.08 В 4 18 км слаб. дождь н/о +27.8 +26.8 94 +43 +43 опасность
перегрева
1006.8 1002.7
22 22.08 В 5 19 км в посл. час дождь н/о +28.2 +26.6 91 +44 +44 опасность
перегрева
1007.1 1003.0
23 22.08 В 6 20 км н/о +29.0 +26.6 87 +45 +45 опасность
перегрева
1007.5 1003.4
00 23.08 В 6 18 км {дождь} н/о +29.9 +26.7 83 +46 +46 опасность
перегрева
1008.1 1004.0 +26.9 0.0
01 23.08 В 5 17 км н/о +30.8 +27.6 83 +50 +50 опасность
перегрева
1008.2 1004.1
02 23.08 В 7 7000 м слаб. дождь н/о +28.5 +26.7 90 +44 +44 опасность
перегрева
1008.2 1004.1
03 23.08 СВ 5 20 км в посл. час дождь н/о +30.9 +27.5 82 +50 +50 опасность
перегрева
1007.6 1003.5
04 23.08 СВ 7 17 км н/о +30.4 +27.2 83 +48 +48 опасность
перегрева
1006.8 1002.7
05 23.08 В 7 16 км н/о +31.2 +27.5 81 +50 +50 опасность
перегрева
1006.3 1002.2
06 23.08 В 7 17 км {дождь} н/о +31.5 +27.8 81 +51 +51 опасность
перегрева
1005.8 1001.8 0.0
07 23.08 В 8 16 км н/о +30.9 +26.8 79 +48 +48 опасность
перегрева
1005.5 1001.4
08 23.08 В 7 13 км н/о +30.6 +27.2 82 +48 +48 опасность
перегрева
1005.4 1001.3
09 23.08 В 8 14 км н/о +29.5 +26.9 86 +46 +46 опасность
перегрева
1005.7 1001.6
11 23.08 В 7 12 км н/о +28.9 +26.9 89 +45 +45 опасность
перегрева
1005.6 1001.5
12 23.08 В 8 11 км н/о +28.8 +27.0 90 +45 +45 опасность
перегрева
1005.8 1001.7 +32.1 0.0
13 23.08 В 8 12 км н/о +29.0 +26.8 88 +45 +45 опасность
перегрева
1006.6 1002.5
14 23.08 В 8 12 км в посл. час дождь н/о +28.7 +26.7 89 +45 +45 опасность
перегрева
1006.6 1002.5
15 23.08 В 7 11 км {дождь} н/о +28.6 +26.8 90 +45 +45 опасность
перегрева
1006.1 1002.0
16 23.08 В 7 11 км н/о +28.5 +26.5 89 +44 +44 опасность
перегрева
1006.0 1001.9
17 23.08 В 9 14 км н/о +28.7 +26.1 86 +43 +43 опасность
перегрева
1005.4 1001.3
18 23.08 В 8 12 км {дождь} н/о +28.5 +26.3 88 +43 +43 опасность
перегрева
1004.9 1000.8 0.0
19 23.08 В 7 12 км н/о +28.1 +25.7 87 +42 +42 опасность
перегрева
1004.5 1000.4
20 23.08 В 7 11 км в посл. час дождь н/о +26.8 +26.3 97 +41 +41 опасность
перегрева
1004.1 1000.0
21 23.08 В 9 11 км слаб. дождь н/о +27.1 +25.9 93 +40 +40 очень
душно
1004.2 1000.1
22 23.08 В 6 6000 м слаб. дождь н/о +27.2 +26.3 95 +41 +41 опасность
перегрева
1004.2 1000.1
23 23.08 ЮВ 8 6000 м слаб. дождь н/о +25.8 +25.5 98 +38 +38 очень
душно
1005.0 1000.9
00 24.08 ЮВ 8 16 км в посл. час дождь н/о +26.3 +24.9 92 +38 +38 очень
душно
1005.0 1000.9 +24.9 12
02 24.08 В 10 9000 м слаб. дождь н/о +28.9 +26.9 89 +45 +45 опасность
перегрева
1005.0 1000.9
03 24.08 ЮВ 11 9000 м в посл. час дождь н/о +29.8 +27.2 86 +47 +47 опасность
перегрева
1005.0 1000.9
04 24.08 ЮВ 12 9000 м дымка н/о +30.6 +27.4 83 +49 +49 опасность
перегрева
1004.0 999.9
05 24.08 ЮВ 12 9000 м дымка н/о +29.5 +26.9 86 +46 +46 опасность
перегрева
1004.2 1000.1
06 24.08 ЮВ 12 10 км в посл. час дождь н/о +29.8 +26.8 84 +46 +46 опасность
перегрева
1003.8 999.7 0.0
08 24.08 ЮВ 13 11 км н/о +29.0 +26.2 85 +44 +44 опасность
перегрева
1003.6 999.5
09 24.08 ЮВ 12 2600 м сильн. дождь н/о +27.4 +25.8 91 +41 +41 опасность
перегрева
1004.1 1000.0
10 24.08 ЮВ 7 9000 м слаб. дождь н/о +26.5 +25.6 95 +39 +39 очень
душно
1004.6 1000.5
11 24.08 ЮВ 13 9000 м в посл. час дождь н/о +28.3 +26.5 90 +44 +44 опасность
перегрева
1004.9 1000.8
12 24.08 ЮВ 13 10 км {дождь} н/о +28.6 +26.6 89 +44 +44 опасность
перегрева
1005.3 1001.2 +31.3 6
13 24.08 ЮВ 12 10 км н/о +28.6 +26.4 88 +44 +44 опасность
перегрева
1005.8 1001.7
14 24.08 ЮВ 11 12 км н/о +28.3 +26.5 90 +44 +44 опасность
перегрева
1006.3 1002.2
15 24.08 ЮВ 11 11 км н/о +28.5 +26.5 89 +44 +44 опасность
перегрева
1006.2 1002.1
16 24.08 ЮВ 10 11 км н/о +28.5 +26.3 88 +43 +43 опасность
перегрева
1006.0 1001.9
18 24.08 Ю 11 1800 м дождь н/о +26.7 +26.2 97 +40 +40 очень
душно
1005.9 1001.8 8
19 24.08 ЮВ 6 11 км слаб. дождь н/о +26.6 +25.7 95 +39 +39 очень
душно
1005.5 1001.4
20 24.08 ЮВ 8 8000 м в посл. час дождь н/о +26.9 +26.2 96 +41 +41 опасность
перегрева
1005.8 1001.7
21 24.08 ЮВ 7 10 км {дождь} н/о +27.8 +26.4 92 +42 +42 опасность
перегрева
1006.3 1002.2
22 24.08 ЮВ 9 12 км н/о +27.3 +25.7 91 +40 +40 очень
душно
1006.9 1002.8
23 24.08 ЮВ 8 16 км н/о +28.2 +26.4 90 +43 +43 опасность
перегрева
1007.3 1003.2
00 25.08 Ю 8 18 км {дождь} н/о +28.7 +26.1 86 +43 +43 опасность
перегрева
1008.1 1004.0 +25.2 17
01 25.08 ЮВ 7 12 км н/о +29.3 +27.1 88 +46 +46 опасность
перегрева
1008.6 1004.5
02 25.08 Ю 8 11 км н/о +29.7 +26.9 85 +47 +47 опасность
перегрева
1008.7 1004.6
03 25.08 Ю 8 14 км н/о +30.5 +27.3 83 +49 +49 опасность
перегрева
1008.9 1004.8
04 25.08 Ю 8 17 км н/о +30.1 +26.9 83 +47 +47 опасность
перегрева
1008.7 1004.6
05 25.08 Ю 7 13 км н/о +30.3 +27.5 85 +49 +49 опасность
перегрева
1008.5 1004.4
07 25.08 Ю 7 20 км н/о +28.3 +25.3 84 +41 +41 опасность
перегрева
1007.9 1003.8
08 25.08 Ю 6 18 км н/о +29.9 +25.7 78 +44 +44 опасность
перегрева
1008.0 1003.9
09 25.08 ЮВ 7 13 км н/о +29.2 +27.6 91 +47 +47 опасность
перегрева
1008.2 1004.1
10 25.08 Ю 7 16 км н/о +28.7 +26.9 90 +45 +45 опасность
перегрева
1009.0 1004.9
11 25.08 Ю 7 15 км н/о +28.7 +27.1 91 +45 +45 опасность
перегрева
1009.8 1005.7
12 25.08 Ю 6 14 км н/о +28.7 +27.5 93 +46 +46 опасность
перегрева
1010.6 1006.5 +30.7
13 25.08 ЮВ 6 14 км н/о +28.4 +27.3 94 +45 +45 опасность
перегрева
1010.9 1006.8
14 25.08 ЮВ 7 15 км н/о +28.4 +27.2 93 +45 +45 опасность
перегрева
1011.2 1007.1
15 25.08 ЮВ 7 12 км н/о +28.4 +27.3 94 +45 +45 опасность
перегрева
1011.2 1007.1
17 25.08 Ю 7 14 км н/о +28.2 +27.1 94 +45 +45 опасность
перегрева
1010.5 1006.4

 

Местоположение метеостанции Йонагуни (Япония): широта 24.47 долгота 123.01 высота над уровнем моря 36 м.

В архиве по умолчанию представлена погода на Йонагуни за последнюю неделю. Архивные данные за месяц целиком и за предыдущие месяцы, начиная с января 2011 года, Вы можете получить, выбрав интересующий диапазон дат из раскрывающегося списка и нажав кнопку "Ввод!".


*Определитесь, кто Вы:
робот инопланетянин человек

Внимание! Время в таблицах - всемирное. Для получения местного времени необходимо прибавить поправку, которая равна 9 ч.

Смотрите также архив погоды в соседних городах и на ближайших метеорологических станциях:

Погода на Ириомоте (Япония) (76 км)
Погода в Игисаки (Япония) (118 км)
Погода на Пенгджия (Тайвань, Китай) (161 км)
Погода в Тайбэе (Тайвань, Китай) (164 км)
Погода в Миякодзиме (Япония) (232 км)
Погода в Тайчжуне (Тайвань, Китай) (239 км)
Погода в Тайдонге (Тайвань, Китай) (269 км)
Погода в Ланьюе (Тайвань, Китай) (310 км)
Погода в Тайнане (Тайвань, Китай) (329 км)
Погода на Пинтане (Фуцзянь, Китай) (346 км)

Пояснения к столбцам:

Ветер - указаны скорость ветра в м/с - средняя за 10 мин, порывы в срок и между сроками (в фигурных скобках) и направление, откуда дует ветер: С - северный, СВ - северо-восточный, В - восточный, ЮВ - юго-восточный, Ю - южный, ЮЗ - юго-западный, З - западный, СЗ - северо-западный.
Видимость - горизонтальная дальность видимости в метрах или километрах. При видимости от 1 до 10 км при отсутствии осадков обычно наблюдается дымка, при ухудшении видимости до 1 км и менее - туман. В сухую погоду видимость может ухудшаться дымом, пылью или мглою.
Явления - указаны атмосферные явления, наблюдавшиеся в срок или в последний час перед сроком; фигурными скобками обозначены явления, наблюдавшиеся между сроками (за 1-3 часа до срока); квадратными скобками обозначены град или гололедные отложения с указанием их диаметра в мм.
Облачность - указаны через наклонную черту общая и нижняя облачность в баллах и высота нижней границы облаков в метрах; квадратными скобками обозначены формы облаков: Ci - перистые, Cs - перисто-слоистые, Cc - перисто-кучевые, Ac - высококучевые, As - высокослоистые, Sc - слоисто-кучевые, Ns - слоисто-дождевые, Cu - кучевые, Cb - кучево-дождевые. Подробнее классификацию облаков см. в Атласе облаков (PDF).
T - Температура воздуха - температура, измеренная на высоте 2 м над землей.
Td - Температура точки росы - температура, при понижении до которой содержащийся в воздухе водяной пар достигнет насыщения.
f - Относительная влажность воздуха - влажноcть воздуха, измеренная на высоте 2 м над землей.
Te - Эффективная температура - температура, которую ощущает одетый по сезону человек в тени. Характеристика душности погоды. При расчете учитывается влияние влажности воздуха и скорости ветра на теплоощущения человека.
Tes - Эффективная температура на солнце - температура, которую ощущает человек, с поправкой на солнечный нагрев. Характеристика знойности погоды. Зависит от высоты солнца над горизонтом, облачности и скорости ветра. Ночью, в пасмурную погоду, а также при ветре 12 м/с и более поправка равна нулю.
P - Атмосферное давление - приведенное к уровню моря атмосферное давление.
Po - Атмосферное давление - измеренное на уровне метеостанции атмосферное давление.
Tmin - Минимальная температура - минимум температуры воздуха на высоте 2 м над землей.
Tmax - Максимальная температура - максимум температуры воздуха на высоте 2 м над землей.
R - Количество осадков - Количество выпавших осадков за период времени, мм. При наведении курсора мыши на число - период времени, за который выпало указанное количество осадков.
R24 - Количество осадков - Количество выпавших осадков за 24 часа, мм.
S - Снежный покров - Высота снежного покрова, см. При наведении курсора мыши на число - состояние снежного покрова и степень покрытия местности в баллах.